Regional Weather Roundup
Issued by NWS Grand Forks, ND

Home | Current Version | Previous Version | Text Only | Print | Product List | Glossary On
Versions: 1 2 3 4 5 6 7 8 9 10 11 12 13 14 15 16 17 18 19 20 21 22 23 24 25 26 27 28 29 30 31 32 33 34 35 36 37 38 39 40 41 42 43 44 45 46 47 48 49 50
000
ASUS43 KFGF 281131
RWRFGF
PRAIRIE TO PINES  WEATHER ROUNDUP
NATIONAL WEATHER SERVICE EASTERN NORTH DAKOTA/GRAND FORKS ND
600 AM CDT WED JUN 28 2017

 **SATELLITE DATA USED TO AUGMENT SKY COVER AT AUTOMATED STATIONS**
 *****  WEATHER ACROSS EASTERN NORTH DAKOTA  *****

CITY           SKY/WX    TMP DP  RH WIND       PRES   REMARKS
GRAND FORKS    LGT RAIN  63  61  93 NW5       29.51R
GRAND FRKS AFB TSTM      61  61 100 N9        29.53R
DEVILS LAKE    LGT RAIN  62  62 100 CALM      29.56R
FARGO          CLOUDY    67  62  84 SE16      29.48R
WAHPETON ARPT  CLOUDY    63  59  88 SE20      29.49S
$$

 ***** WEATHER ACROSS CENTRAL AND WESTERN NORTH DAKOTA  *****

CITY           SKY/WX    TMP DP  RH WIND       PRES   REMARKS
BISMARCK       MOCLDY    64  60  87 NW9       29.61R
MINOT          FAIR      60  55  83 NW14      29.61R
JAMESTOWN      FAIR      59  57  93 N12       29.50R
MINOT AFB      FAIR      59  55  86 NW14      29.61R
GARRISON         N/A     57  56  96 NW13      29.63R
WILLISTON      FAIR      54  40  59 N8        29.71R
DICKINSON      FAIR      56  54  93 NW9       29.70R
HETTINGER      FAIR      61  55  81 NW12      29.72R
$$

 *****  OTHER AIRPORT OBSERVATIONS IN OUR AREA  *****

CITY           SKY/WX    TMP DP  RH WIND       PRES   REMARKS
WALHALLA       NOT AVBL
GRAFTON AIRPOR LGT RAIN  59  59 100 CALM      29.56S
VALLEY CITY AR CLOUDY    61  61 100 NE7       29.51R
CANDO          NOT AVBL
CAVALIER APRT  LGT RAIN  61  61 100 S7        29.53S
GWINNER        CLOUDY    64  61  88 CALM      29.44S
SHEYENNE NWR     N/A     63  58  85 SE14      29.95S
ROLLA            N/A     63  57  82 NW22      29.55R
 ***** THE ABOVE OBSERVATIONS ARE NON NWS ARE NOT QUALITY
       CONTROLLED AND MAY MIS-REPORT RAIN FOR SNOW...
$$

  *****  WEATHER ACROSS NORTHERN MINNESOTA  *****

CITY           SKY/WX    TMP DP  RH WIND       PRES   REMARKS
FLAG ISLAND    CLOUDY    63  50  63 SE10      29.59F
WARROAD        RAIN      61  55  82 CALM      29.59R
ROSEAU         CLOUDY    63  57  82 S8        29.58R
HALLOCK        RAIN      59  57  94 CALM      29.55S
THF RVR FALLS  CLOUDY    62  58  86 SE12      29.55S
BAUDETTE       CLOUDY    58  48  69 SE13      29.62
WASKISH        CLOUDY    61  52  72 SE8       29.63S
CROOKSTON      HVY RAIN  61  59  94 SE6       29.53R
STEPHEN NDAWN    N/A     61  59  94 CALM        N/A
GREENBUSH NDAW   N/A     59  57  94 S2          N/A
$$
  *****  WEATHER ACROSS CENTRAL AND WEST MINNESOTA  *****

CITY           SKY/WX    TMP DP  RH WIND       PRES   REMARKS
FOSSTON        MOCLDY    57  55  94 SE9       29.53F
BEMIDJI        LGT RAIN  56  54  91 SE14      29.57F
PARK RAPIDS    LGT RAIN  58  54  86 SE10      29.58
ELBOW LAKE     RAIN      63  61  94 SE18      29.55R
WADENA         RAIN      57  55  94 SE13      29.57S
DETROIT LAKES  FAIR      61  57  88 SE9       29.55F
MOORHEAD       CLOUDY    66  63  88 SE16G22   29.49R
FERGUS FALLS   RAIN      64  63  94 SE22      29.50S
MORRIS MN      MOCLDY    66  61  82 SE14      29.52F
STAPLES        RAIN      55  55 100 E3        29.61F
$$
  *****  WEATHER ELSEWHERE ACROSS MINNESOTA  *****

CITY           SKY/WX    TMP DP  RH WIND       PRES   REMARKS
DULUTH         FAIR      57  48  72 E7        29.70F
INTRNTL FALLS  CLOUDY    55  46  71 SE6       29.67R
ELY            FAIR      55  45  67 S5        29.72F
CLOQUET        MOCLDY    55  48  76 E3        29.70R
WHEATON        FAIR      64  61  88 SE15      29.50F
BRAINERD       LGT RAIN  60  54  80 SE5       29.64
HIBBING        CLOUDY    52  48  86 SE3       29.68F
ALEXANDRIA     CLOUDY    63  60  90 SE21G28   29.59R
SAINT CLOUD    LGT RAIN  62  62 100 SE9       29.61F
MINNEAPOLIS    RAIN      63  59  87 E21       29.63F FOG
$$

  *****  WEATHER ACROSS SOUTH DAKOTA  *****

CITY           SKY/WX    TMP DP  RH WIND       PRES   REMARKS
SIOUX FALLS    MOCLDY    66  64  93 S14       29.59S
BROOKINGS      MOCLDY    65  61  87 S13       29.55S
WATERTOWN      FAIR      65  60  84 S15       29.49S
HURON          FAIR      71  56  58 W17       29.52R
SISSETON         N/A     66  65  96 SE12      29.44F
ABERDEEN       FAIR      67  61  81 W16       29.44S
MITCHELL       FAIR      71  59  65 SW14      29.56R
PIERRE         LGT RAIN  65  59  81 W12       29.62R
MOBRIDGE       FAIR      68  56  65 NW16      29.55R
RAPID CITY     FAIR      59  50  72 NW13      29.77R
$$

  *****  SOME WEATHER IN NEARBY STATES *****

CITY           SKY/WX    TMP DP  RH WIND       PRES   REMARKS
GLASGOW MT     FAIR      50  38  63 E6        29.75R
GREAT FALLS MT FAIR      50  38  63 SW8       29.78R
CHEYENNE WY    FAIR      52  39  61 W10       30.00R
SCOTTSBLUFF NE FAIR      53  47  79 NW8       29.87R
OMAHA NE       CLOUDY    65  61  87 S20       29.73F
DES MOINES IA  TSTM      69  65  86 S13       29.78F
DAVENPORT IA   NOT AVBL
CHICAGO IL     MOCLDY    62  47  57 S14       29.98F
EAU CLAIRE WI  FAIR      63  48  58 SE9       29.73F
LA CROSSE WI   MOCLDY    72  53  51 S10       29.76F
$$

  *****  SOME NATIONAL WEATHER *****

CITY           SKY/WX    TMP DP  RH WIND       PRES   REMARKS
LA GUARDIA NY  FAIR      64  52  64 NW12      30.08R
RALEIGH NC     FAIR      60  55  83 NE7       30.18R
ATLANTA GA     MOCLDY    67  57  70 E7        30.13R
NEW ORLEANS LA LGT RAIN  77  73  87 E6        29.97S
OKLAHOMA CITY  FAIR      71  69  93 S14       29.92R
ALBUQUERQUE NM FAIR      66  35  31 E6        30.03R
SALT LAKE CITY FAIR      68  39  34 SE8       29.84S
LOS ANGELES CA FAIR      62  60  93 W5        29.86R
BOISE ID       FAIR      64  48  56 NE8       29.83R
SEATTLE WA     MOCLDY    55  51  86 S7        30.00R
$$

*** WEATHER ACROSS MANITOBA...SASKATCHEWAN AND ONTARIO ***
                ***ONTARIO***

CITY           SKY/WX    TMP DP  RH WIND       PRES   REMARKS
GERALDTON      PTCLDY    50  46  87 SW6       29.76S
THUNDER BAY    MOCLDY    48  48 100 CALM      29.79R
SIOUX LOOKOUT  MOCLDY    54  50  87 SE6       29.69F
TORONTO        MOSUNNY   57  50  77 W7        30.05R
BIG TROUT LK   FOG       43  43 100 NE3       29.82S VSB 5/8
PICKLE LAKE    PTCLDY    50  48  93 E9        29.73
DRYDEN         CLOUDY    57  48  72 E6        29.67S
KENORA         CLOUDY    59  48  67 SE9       29.64
$$
                *** MANITOBA***

CITY           SKY/WX    TMP DP  RH WIND       PRES   REMARKS
BRANDON        MOCLDY    59  54  82 NW10      29.53R
DAUPHIN        CLEAR     59  55  88 W15       29.50R
ISLAND LAKE    CLOUDY    50  46  87 E7G22     29.73S
PILOT MOUND      N/A     59  57  94 S9          N/A
THE PAS        LGT RAIN  52  50  93 NE6       29.52R FOG
THOMPSON       MOCLDY    45  37  76 E8G20     29.77F
WINNIPEG       LGT RAIN  63  52  67 S9        29.52R
LYNN LAKE      CLOUDY    46  37  71 E17G26    29.76S
CHURCHILL      FOG       37  37 100 E6        30.01S VSB 1/4
GILLAM         MOCLDY    39  37  93 E9        29.89S
$$
                ***SASKATCHEWAN***

CITY           SKY/WX    TMP DP  RH WIND       PRES   REMARKS
ESTEVAN        PTCLDY    46  43  87 NW13      29.67R
KINDERSLEY     MOCLDY    50  48  93 S6        29.71F
LLOYDMINSTER   CLOUDY    50  46  87 SW9       29.63F
PRINCE ALBERT  PTCLDY    50  46  87 W6        29.62R
REGINA         PTCLDY    43  41  93 W8        29.69S
YORKTON        CLEAR     52  46  82 W13       29.58S
N. BATTLEFORD  CLEAR     46  43  87 SW5       29.68R
LA RONGE       LGT RAIN  50  50 100 E9        29.58R FOG
SASKATOON      PTCLDY    46  45  93 SW10      29.69R
SWIFT CURRENT  MOCLDY    48  41  76 S8        29.73S
$$
NOTE: THESE ARE AUTOMATED STATIONS WITH LIMITED QUALITY CONTROL
      "FAIR" INDICATES FEW OR NO CLOUDS BELOW 12,000 FEET WITH NO
      SIGNIFICANT WEATHER AND/OR OBSTRUCTIONS TO VISIBILITY.
      SKY/WX - SKY CONDITION AND SIGNIFICANT WEATHER.
      TMP - AIR TEMPERATURE.    DP   - DEWPOINT TEMPERATURE.
      RH  - RELATIVE HUMIDITY.  PRES - PRESSURE.
      HX  - HEAT INDEX.         WCI  - WIND CHILL INDEX.
$



USA.gov is the U.S. government's official web portal to all federal, state and local government web resources and services.